Weather History for Sheridan, WY

Change the Weather History Date:

Monday, May 20, 2013

  Actual Average Record
Temperature  
Mean Temperature 51 °F 54 °F  
Max Temperature 57 °F 68 °F 93 °F (1964)
Min Temperature 45 °F 39 °F 24 °F (1931)
Degree Days  
Heating Degree Days 14 11  
Month to date heating degree days 231 284  
Since 1 July heating degree days 7323 7385  
Cooling Degree Days 0 0  
Month to date cooling degree days 8 0  
Year to date cooling degree days 8 0  
Growing Degree Days 1 (Base 50)    
Moisture  
Dew Point 43 °F    
Average Humidity 68    
Maximum Humidity 93    
Minimum Humidity 43    
Precipitation  
Precipitation 0.44 in 0.07 in 1.21 in (1956)
Month to date precipitation 1.21 1.52  
Year to date precipitation 5.50 5.20  
Sea Level Pressure  
Sea Level Pressure 30.03 in    
Wind  
Wind Speed 19 mph (NW)    
Max Wind Speed 31 mph    
Max Gust Speed 40 mph    
Visibility 10 miles    
Events Rain    
T = Trace of Precipitation, MM = Missing Value Source: NWS Daily Summary

Daily Weather History Graph

Daily Weather History Graph

Search for Another Location

Airport:

Trip Planner

Search our weather history database for the weather conditions in past years. The results will help you decide how hot, cold, wet, or windy it might be!

Date:

Astronomy

May. 20, 2013 Rise Set
Actual Time 5:34 AM MDT 8:35 PM MDT
Civil Twilight 4:59 AM MDT 9:10 PM MDT
Nautical Twilight 4:15 AM MDT 9:54 PM MDT
Astronomical Twilight 3:22 AM MDT 10:48 PM MDT
Moon 3:35 PM MDT (5/20) 2:43 AM MDT (5/20)
Length of Visible Light 16h 10m
Length of Day
15h 01m
Waxing Gibbous, 75% of the Moon is Illuminated
May 20
Waxing Gibbous
May 24
Full
May 31
Last Quarter
Jun 8
New
Jun 16
First Quarter

Hourly Weather History & Observations

Time (MDT) Temp. Windchill Dew Point Humidity Pressure Visibility Wind Dir Wind Speed Gust Speed Precip Events Conditions
12:14 AM 48.2 °F - 46.4 °F 93% 29.97 in 10.0 mi NW 13.8 mph 24.2 mph 0.02 in Rain Light Rain
12:24 AM 48.2 °F - 46.4 °F 93% 29.97 in 10.0 mi NW 19.6 mph - 0.02 in   Overcast
12:53 AM 48.9 °F - 46.9 °F 93% 29.96 in 10.0 mi NW 17.3 mph - 0.02 in   Overcast
1:53 AM 48.9 °F - 46.0 °F 90% 29.96 in 10.0 mi NW 18.4 mph 29.9 mph N/A   Overcast
2:23 AM 48.2 °F - 46.4 °F 93% 29.96 in 9.0 mi NW 23.0 mph 29.9 mph 0.04 in Rain Rain
2:35 AM 48.2 °F - 46.4 °F 93% 29.96 in 6.0 mi NNW 16.1 mph - 0.12 in Rain Heavy Rain
2:53 AM 48.9 °F - 46.0 °F 90% 29.97 in 10.0 mi NNW 18.4 mph 26.5 mph 0.19 in   Overcast
3:12 AM 48.2 °F - 44.6 °F 87% 29.98 in 10.0 mi NW 21.9 mph 29.9 mph 0.00 in Rain Light Rain
3:21 AM 48.2 °F - 44.6 °F 87% 29.98 in 10.0 mi NW 18.4 mph 31.1 mph 0.01 in Rain Light Rain
3:53 AM 46.9 °F - 44.1 °F 90% 29.99 in 10.0 mi NW 17.3 mph - 0.01 in   Overcast
4:25 AM 46.4 °F 39.2 °F 44.6 °F 93% 30.00 in 10.0 mi WNW 18.4 mph - N/A   Overcast
4:53 AM 46.9 °F - 44.1 °F 90% 30.00 in 10.0 mi WNW 15.0 mph - N/A   Overcast
5:53 AM 46.4 °F 39.8 °F 44.6 °F 93% 30.01 in 10.0 mi WNW 16.1 mph - N/A   Overcast
6:53 AM 48.0 °F - 45.0 °F 89% 30.00 in 10.0 mi NW 19.6 mph 27.6 mph 0.04 in   Overcast
7:53 AM 48.2 °F - 44.6 °F 87% 30.02 in 10.0 mi NW 19.6 mph 28.8 mph N/A   Overcast
8:09 AM 48.2 °F - 44.6 °F 87% 30.02 in 9.0 mi NW 19.6 mph - 0.02 in Rain Rain
8:16 AM 48.2 °F - 44.6 °F 87% 30.02 in 10.0 mi NW 23.0 mph - 0.02 in Rain Light Rain
8:53 AM 48.0 °F - 45.0 °F 89% 30.02 in 10.0 mi NW 21.9 mph 28.8 mph 0.04 in Rain Rain
9:53 AM 50.0 °F - 46.0 °F 86% 30.03 in 10.0 mi NW 18.4 mph 28.8 mph 0.01 in   Overcast
10:03 AM 50.0 °F - 46.4 °F 87% 30.04 in 10.0 mi NW 20.7 mph - N/A   Overcast
10:53 AM 51.1 °F - 45.0 °F 80% 30.03 in 10.0 mi NW 24.2 mph 29.9 mph 0.00 in   Overcast
11:53 AM 51.8 °F - 42.8 °F 71% 30.04 in 10.0 mi NW 23.0 mph 32.2 mph N/A   Overcast
12:53 PM 55.0 °F - 39.9 °F 57% 30.02 in 10.0 mi NW 27.6 mph 35.7 mph N/A   Overcast
1:53 PM 57.0 °F - 37.0 °F 47% 30.01 in 10.0 mi NNW 28.8 mph 36.8 mph N/A   Overcast
2:53 PM 57.0 °F - 36.0 °F 45% 30.01 in 10.0 mi NW 28.8 mph 34.5 mph N/A   Overcast
3:53 PM 57.0 °F - 36.0 °F 45% 30.02 in 10.0 mi NNW 27.6 mph 35.7 mph N/A   Overcast
4:53 PM 55.9 °F - 39.9 °F 55% 30.04 in 10.0 mi North 18.4 mph 33.4 mph N/A   Overcast
5:53 PM 51.1 °F - 39.9 °F 66% 30.07 in 10.0 mi NNE 17.3 mph 27.6 mph N/A   Overcast
6:53 PM 51.1 °F - 39.9 °F 66% 30.09 in 10.0 mi North 18.4 mph 25.3 mph N/A   Overcast
7:53 PM 46.4 °F 41.9 °F 42.8 °F 87% 30.11 in 10.0 mi NW 9.2 mph - N/A Rain Light Rain
8:53 PM 46.9 °F - 43.0 °F 86% 30.13 in 10.0 mi WNW 13.8 mph 20.7 mph 0.03 in Rain Light Rain
9:53 PM 46.0 °F 39.6 °F 42.1 °F 86% 30.14 in 10.0 mi WNW 15.0 mph - 0.04 in Rain Light Rain
10:05 PM 46.4 °F 39.8 °F 42.8 °F 87% 30.13 in 10.0 mi WNW 16.1 mph - 0.00 in Rain Light Rain
10:15 PM 46.4 °F 40.1 °F 42.8 °F 87% 30.13 in 10.0 mi WNW 15.0 mph - 0.01 in Rain Light Rain
10:53 PM 45.0 °F 37.4 °F 42.1 °F 90% 30.13 in 10.0 mi WNW 18.4 mph - 0.03 in Rain Light Rain
11:53 PM 45.0 °F 39.7 °F 41.0 °F 86% 30.12 in 10.0 mi West 10.4 mph - 0.01 in   Overcast